"Period start","avg(HW err(1)/warn(2) (#))","avg(Visibility (m))","avg(Weather code (#))","avg(Precip intensity (mm/h))","min(HW err(1)/warn(2) (#))","max(HW err(1)/warn(2) (#))","std(HW err(1)/warn(2) (#))","med(HW err(1)/warn(2) (#))","min(Visibility (m))","max(Visibility (m))","std(Visibility (m))","med(Visibility (m))","min(Weather code (#))","max(Weather code (#))","std(Weather code (#))","med(Weather code (#))","min(Precip intensity (mm/h))","max(Precip intensity (mm/h))","std(Precip intensity (mm/h))","med(Precip intensity (mm/h))"
2014-06-16 00:00:00,2,42285,0,0.00,2,2,0,2,23295,50000,7501,43798,0,0,0,0,0.00,0.00,0.00,0.00
2014-06-16 00:10:00,2,37755,0,0.00,2,2,0,2,21176,50000,9886,41026,0,0,0,0,0.00,0.00,0.00,0.00
2014-06-16 00:20:00,2,42979,0,0.00,2,2,0,2,38955,48761,2869,43222,0,0,0,0,0.00,0.00,0.00,0.00
2014-06-16 00:30:00,2,43466,0,0.00,2,2,0,2,23036,50000,10230,49733,0,0,0,0,0.00,0.00,0.00,0.00
2014-06-16 00:40:00,2,39578,0,0.00,2,2,0,2,30483,45231,4516,40163,0,0,0,0,0.00,0.00,0.00,0.00
2014-06-16 00:50:00,2,37998,0,0.00,2,2,0,2,27719,44290,4371,38175,0,0,0,0,0.00,0.00,0.00,0.00
2014-06-16 01:00:00,2,41029,0,0.00,2,2,0,2,34402,47540,4384,40244,0,0,0,0,0.00,0.00,0.00,0.00
2014-06-16 01:10:00,2,39344,0,0.00,2,2,0,2,28921,48668,6335,40610,0,0,0,0,0.00,0.00,0.00,0.00
2014-06-16 01:20:00,2,45794,0,0.00,2,2,0,2,36984,50000,4887,48401,0,0,0,0,0.00,0.00,0.00,0.00
2014-06-16 01:30:00,2,44758,0,0.00,2,2,0,2,25883,50000,7134,47726,0,0,0,0,0.00,0.00,0.00,0.00
2014-06-16 01:40:00,2,42605,0,0.00,2,2,0,2,32348,50000,7141,44798,0,0,0,0,0.00,0.00,0.00,0.00
2014-06-16 01:50:00,1,39704,0,0.00,0,2,1,2,29783,50000,7642,37854,0,0,0,0,0.00,0.00,0.00,0.00
2014-06-16 02:00:00,0,49527,0,0.00,0,0,0,0,47415,50000,811,50000,0,0,0,0,0.00,0.00,0.00,0.00
2014-06-16 02:10:00,0,40184,0,0.00,0,0,0,0,31225,50000,7236,38148,0,0,0,0,0.00,0.00,0.00,0.00
2014-06-16 02:20:00,0,43918,0,0.00,0,0,0,0,27769,50000,6885,44672,0,0,0,0,0.00,0.00,0.00,0.00
2014-06-16 02:30:00,0,39403,0,0.00,0,0,0,0,33394,47987,3736,39127,0,0,0,0,0.00,0.00,0.00,0.00
2014-06-16 02:40:00,0,38945,0,0.00,0,0,0,0,26811,50000,8379,36544,0,0,0,0,0.00,0.00,0.00,0.00
2014-06-16 02:50:00,0,40564,0,0.00,0,0,0,0,26571,50000,6770,43044,0,0,0,0,0.00,0.00,0.00,0.00
2014-06-16 03:00:00,0,43541,0,0.00,0,0,0,0,23215,50000,8977,49358,0,0,0,0,0.00,0.00,0.00,0.00
2014-06-16 03:10:00,0,38216,0,0.00,0,0,0,0,18758,50000,9204,38970,0,0,0,0,0.00,0.00,0.00,0.00
2014-06-16 03:20:00,0,45522,0,0.00,0,0,0,0,38057,50000,3831,47304,0,0,0,0,0.00,0.00,0.00,0.00
2014-06-16 03:30:00,0,43808,0,0.00,0,0,0,0,36830,50000,3791,43576,0,0,0,0,0.00,0.00,0.00,0.00
2014-06-16 03:40:00,0,44546,0,0.00,0,0,0,0,37300,48703,3104,44968,0,0,0,0,0.00,0.00,0.00,0.00
2014-06-16 03:50:00,0,42292,0,0.00,0,0,0,0,25908,50000,8592,45214,0,0,0,0,0.00,0.00,0.00,0.00
2014-06-16 04:00:00,0,45378,0,0.00,0,0,0,0,35759,50000,4930,46572,0,0,0,0,0.00,0.00,0.00,0.00
2014-06-16 04:10:00,0,48129,0,0.00,0,0,0,0,43147,50000,2305,48912,0,0,0,0,0.00,0.00,0.00,0.00
2014-06-16 04:20:00,0,46971,0,0.00,0,0,0,0,37379,50000,4437,49320,0,0,0,0,0.00,0.00,0.00,0.00
2014-06-16 04:30:00,0,45626,0,0.00,0,0,0,0,36576,50000,5084,47986,0,0,0,0,0.00,0.00,0.00,0.00
2014-06-16 04:40:00,0,42820,0,0.00,0,0,0,0,34719,50000,5341,44440,0,0,0,0,0.00,0.00,0.00,0.00
2014-06-16 04:50:00,0,43474,0,0.00,0,0,0,0,37133,50000,4213,44520,0,0,0,0,0.00,0.00,0.00,0.00
2014-06-16 05:00:00,0,47624,0,0.00,0,0,0,0,41641,50000,3163,49672,0,0,0,0,0.00,0.00,0.00,0.00
2014-06-16 05:10:00,0,46552,0,0.00,0,0,0,0,38451,50000,3805,47881,0,0,0,0,0.00,0.00,0.00,0.00
2014-06-16 05:20:00,0,46678,0,0.00,0,0,0,0,37148,50000,4041,48414,0,0,0,0,0.00,0.00,0.00,0.00
2014-06-16 05:30:00,0,44436,0,0.00,0,0,0,0,34697,50000,4241,45054,0,0,0,0,0.00,0.00,0.00,0.00
2014-06-16 05:40:00,0,46428,0,0.00,0,0,0,0,41549,50000,2666,46268,0,0,0,0,0.00,0.00,0.00,0.00
2014-06-16 05:50:00,0,47358,0,0.00,0,0,0,0,40930,50000,3110,48764,0,0,0,0,0.00,0.00,0.00,0.00
2014-06-16 06:00:00,0,47554,0,0.00,0,0,0,0,41169,50000,3318,49269,0,0,0,0,0.00,0.00,0.00,0.00
2014-06-16 06:10:00,0,49432,0,0.00,0,0,0,0,46171,50000,1219,50000,0,0,0,0,0.00,0.00,0.00,0.00
2014-06-16 06:20:00,0,47510,0,0.00,0,0,0,0,41225,50000,3268,49180,0,0,0,0,0.00,0.00,0.00,0.00
2014-06-16 06:30:00,0,38140,0,0.00,0,0,0,0,29910,45673,4592,36308,0,0,0,0,0.00,0.00,0.00,0.00
2014-06-16 06:40:00,0,47003,0,0.00,0,0,0,0,39311,50000,3143,47796,0,0,0,0,0.00,0.00,0.00,0.00
2014-06-16 06:50:00,0,44264,0,0.00,0,0,0,0,34953,50000,4806,44718,0,0,0,0,0.00,0.00,0.00,0.00
2014-06-16 07:00:00,0,40080,0,0.00,0,0,0,0,29038,49837,6890,41122,0,0,0,0,0.00,0.00,0.00,0.00
2014-06-16 07:10:00,0,45980,0,0.00,0,0,0,0,37308,50000,3864,47130,0,0,0,0,0.00,0.00,0.00,0.00
2014-06-16 07:20:00,0,43741,0,0.00,0,0,0,0,32966,49872,4487,43850,0,0,0,0,0.00,0.00,0.00,0.00
2014-06-16 07:30:00,0,44927,0,0.00,0,0,0,0,35244,50000,4686,47098,0,0,0,0,0.00,0.00,0.00,0.00
2014-06-16 07:40:00,0,44658,0,0.00,0,0,0,0,34131,50000,4855,45142,0,0,0,0,0.00,0.00,0.00,0.00
2014-06-16 07:50:00,0,48121,0,0.00,0,0,0,0,42965,50000,2483,49322,0,0,0,0,0.00,0.00,0.00,0.00
2014-06-16 08:00:00,0,45765,0,0.00,0,0,0,0,37961,50000,4054,46341,0,0,0,0,0.00,0.00,0.00,0.00
2014-06-16 08:10:00,0,41933,0,0.00,0,0,0,0,31841,50000,6502,42930,0,0,0,0,0.00,0.00,0.00,0.00
2014-06-16 08:20:00,0,46484,0,0.00,0,0,0,0,38243,50000,4057,47400,0,0,0,0,0.00,0.00,0.00,0.00
2014-06-16 08:30:00,0,43186,0,0.00,0,0,0,0,30828,50000,5948,45846,0,0,0,0,0.00,0.00,0.00,0.00
2014-06-16 08:40:00,0,45278,0,0.00,0,0,0,0,35363,50000,5281,48178,0,0,0,0,0.00,0.00,0.00,0.00
2014-06-16 08:50:00,0,46036,0,0.00,0,0,0,0,35391,50000,5306,49615,0,0,0,0,0.00,0.00,0.00,0.00
2014-06-16 09:00:00,0,49030,0,0.00,0,0,0,0,44217,50000,1933,50000,0,0,0,0,0.00,0.00,0.00,0.00
2014-06-16 09:10:00,0,46278,0,0.00,0,0,0,0,40074,50000,3296,47520,0,0,0,0,0.00,0.00,0.00,0.00
2014-06-16 09:20:00,0,48592,0,0.00,0,0,0,0,42554,50000,2256,49822,0,0,0,0,0.00,0.00,0.00,0.00
2014-06-16 09:30:00,0,49206,0,0.00,0,0,0,0,43581,50000,1901,50000,0,0,0,0,0.00,0.00,0.00,0.00
2014-06-16 09:40:00,0,46024,0,0.00,0,0,0,0,37493,50000,3575,46250,0,0,0,0,0.00,0.00,0.00,0.00
2014-06-16 09:50:00,0,47521,0,0.00,0,0,0,0,43747,50000,2213,47569,0,0,0,0,0.00,0.00,0.00,0.00
2014-06-16 10:00:00,0,48376,0,0.00,0,0,0,0,40058,50000,3003,50000,0,0,0,0,0.00,0.00,0.00,0.00
2014-06-16 10:10:00,0,46084,0,0.00,0,0,0,0,38755,50000,4035,47563,0,0,0,0,0.00,0.00,0.00,0.00
2014-06-16 10:20:00,0,48724,0,0.00,0,0,0,0,43152,50000,1986,49433,0,0,0,0,0.00,0.00,0.00,0.00
2014-06-16 10:30:00,0,43413,0,0.00,0,0,0,0,33575,50000,5396,44930,0,0,0,0,0.00,0.00,0.00,0.00
2014-06-16 10:40:00,0,48239,0,0.00,0,0,0,0,37387,50000,3788,50000,0,0,0,0,0.00,0.00,0.00,0.00
2014-06-16 10:50:00,0,43016,0,0.00,0,0,0,0,36720,50000,3886,43138,0,0,0,0,0.00,0.00,0.00,0.00
2014-06-16 11:00:00,0,44612,0,0.00,0,0,0,0,25582,50000,8130,49023,0,0,0,0,0.00,0.00,0.00,0.00
2014-06-16 11:10:00,0,43430,0,0.00,0,0,0,0,29952,50000,6018,43496,0,0,0,0,0.00,0.00,0.00,0.00
2014-06-16 11:20:00,0,45012,0,0.00,0,0,0,0,27701,50000,7788,50000,0,0,0,0,0.00,0.00,0.00,0.00
2014-06-16 11:30:00,0,45831,0,0.00,0,0,0,0,30282,50000,6340,49586,0,0,0,0,0.00,0.00,0.00,0.00
2014-06-16 11:40:00,0,49341,0,0.00,0,0,0,0,47045,50000,1087,50000,0,0,0,0,0.00,0.00,0.00,0.00
2014-06-16 11:50:00,0,41568,0,0.00,0,0,0,0,27606,50000,7943,41626,0,0,0,0,0.00,0.00,0.00,0.00
2014-06-16 12:00:00,0,45633,0,0.00,0,0,0,0,37623,50000,4220,46209,0,0,0,0,0.00,0.00,0.00,0.00
2014-06-16 12:10:00,0,45820,0,0.00,0,0,0,0,33665,50000,5720,49951,0,0,0,0,0.00,0.00,0.00,0.00
2014-06-16 12:20:00,0,48890,0,0.00,0,0,0,0,45783,50000,1403,49761,0,0,0,0,0.00,0.00,0.00,0.00
2014-06-16 12:30:00,0,47604,0,0.00,0,0,0,0,40532,50000,3683,50000,0,0,0,0,0.00,0.00,0.00,0.00
2014-06-16 12:40:00,0,42174,0,0.00,0,0,0,0,14794,50000,11294,47848,0,0,0,0,0.00,0.00,0.00,0.00
2014-06-16 12:50:00,0,47341,0,0.00,0,0,0,0,41143,50000,3945,50000,0,0,0,0,0.00,0.00,0.00,0.00
2014-06-16 13:00:00,0,48687,0,0.00,0,0,0,0,45367,50000,1694,50000,0,0,0,0,0.00,0.00,0.00,0.00
2014-06-16 13:10:00,0,49088,0,0.00,0,0,0,0,44309,50000,1734,50000,0,0,0,0,0.00,0.00,0.00,0.00
2014-06-16 13:20:00,0,47767,0,0.00,0,0,0,0,42910,50000,2476,48653,0,0,0,0,0.00,0.00,0.00,0.00
2014-06-16 13:30:00,0,48645,0,0.00,0,0,0,0,42337,50000,2313,49940,0,0,0,0,0.00,0.00,0.00,0.00
2014-06-16 13:40:00,0,48202,0,0.00,0,0,0,0,44725,50000,1610,48630,0,0,0,0,0.00,0.00,0.00,0.00
2014-06-16 13:50:00,0,48116,0,0.00,0,0,0,0,45023,50000,1881,48968,0,0,0,0,0.00,0.00,0.00,0.00
2014-06-16 14:00:00,0,50000,0,0.00,0,0,0,0,50000,50000,0,50000,0,0,0,0,0.00,0.00,0.00,0.00
2014-06-16 14:10:00,0,49486,0,0.00,0,0,0,0,47210,50000,812,49789,0,0,0,0,0.00,0.00,0.00,0.00
2014-06-16 14:20:00,0,49966,0,0.00,0,0,0,0,49662,50000,101,50000,0,0,0,0,0.00,0.00,0.00,0.00
2014-06-16 14:30:00,0,49693,0,0.00,0,0,0,0,48080,50000,591,50000,0,0,0,0,0.00,0.00,0.00,0.00
2014-06-16 14:40:00,0,49920,0,0.00,0,0,0,0,49571,50000,160,50000,0,0,0,0,0.00,0.00,0.00,0.00
2014-06-16 14:50:00,0,48889,0,0.00,0,0,0,0,44582,50000,1749,50000,0,0,0,0,0.00,0.00,0.00,0.00
2014-06-16 15:00:00,0,44753,0,0.00,0,0,0,0,34450,50000,5457,47101,0,0,0,0,0.00,0.00,0.00,0.00
2014-06-16 15:10:00,0,43697,0,0.00,0,0,0,0,38169,50000,3897,44118,0,0,0,0,0.00,0.00,0.00,0.00
2014-06-16 15:20:00,0,45092,0,0.00,0,0,0,0,36491,50000,4653,47206,0,0,0,0,0.00,0.00,0.00,0.00
2014-06-16 15:30:00,0,49611,0,0.00,0,0,0,0,47033,50000,900,50000,0,0,0,0,0.00,0.00,0.00,0.00
2014-06-16 15:40:00,0,49668,0,0.00,0,0,0,0,47733,50000,717,50000,0,0,0,0,0.00,0.00,0.00,0.00
2014-06-16 15:50:00,0,48004,0,0.00,0,0,0,0,42686,50000,2664,50000,0,0,0,0,0.00,0.00,0.00,0.00
2014-06-16 16:00:00,0,38311,0,0.00,0,0,0,0,31624,50000,5534,36200,0,0,0,0,0.00,0.00,0.00,0.00
2014-06-16 16:10:00,0,40913,0,0.00,0,0,0,0,32972,49366,5359,39586,0,0,0,0,0.00,0.00,0.00,0.00
2014-06-16 16:20:00,0,35545,0,0.00,0,0,0,0,27369,40652,3861,36242,0,0,0,0,0.00,0.00,0.00,0.00
2014-06-16 16:30:00,0,40698,0,0.00,0,0,0,0,33687,48086,4925,42438,0,0,0,0,0.00,0.00,0.00,0.00
2014-06-16 16:40:00,0,47573,0,0.00,0,0,0,0,43526,50000,2454,48406,0,0,0,0,0.00,0.00,0.00,0.00
2014-06-16 16:50:00,0,43288,0,0.00,0,0,0,0,35562,50000,4825,43237,0,0,0,0,0.00,0.00,0.00,0.00
2014-06-16 17:00:00,0,43898,0,0.00,0,0,0,0,36892,50000,4310,44920,0,0,0,0,0.00,0.00,0.00,0.00
2014-06-16 17:10:00,0,43608,0,0.00,0,0,0,0,33151,50000,6077,46413,0,0,0,0,0.00,0.00,0.00,0.00
2014-06-16 17:20:00,0,48786,0,0.00,0,0,0,0,42706,50000,2148,49656,0,0,0,0,0.00,0.00,0.00,0.00
2014-06-16 17:30:00,0,48861,0,0.00,0,0,0,0,44954,50000,1812,50000,0,0,0,0,0.00,0.00,0.00,0.00
2014-06-16 17:40:00,0,47195,0,0.00,0,0,0,0,43000,50000,2484,47308,0,0,0,0,0.00,0.00,0.00,0.00
2014-06-16 17:50:00,0,42639,24,0.34,0,0,0,0,31149,50000,6867,43424,0,61,30,0,0.00,2.55,0.75,0.00
2014-06-16 18:00:00,0,41708,61,1.39,0,0,0,0,36776,49231,3984,41718,61,61,0,61,0.10,9.25,2.66,0.33
2014-06-16 18:10:00,0,43540,61,0.49,0,0,0,0,32849,50000,4451,43633,61,61,0,61,0.00,1.65,0.55,0.25
2014-06-16 18:20:00,0,46540,50,0.14,0,0,0,0,37265,50000,3812,48143,0,61,17,51,0.00,0.45,0.18,0.05
2014-06-16 18:30:00,0,44907,6,0.01,0,0,0,0,31196,49961,5035,46498,0,61,18,0,0.00,0.05,0.02,0.00
2014-06-16 18:40:00,0,23691,61,1.92,0,0,0,0,17553,37245,5328,22058,61,61,0,61,0.45,7.45,1.97,1.10
2014-06-16 18:50:00,0,13890,62,8.50,0,0,0,0,11671,15894,1302,13643,61,62,0,62,2.30,13.55,3.00,9.27
2014-06-16 19:00:00,0,16334,61,8.84,0,0,0,0,12148,19978,2011,16482,61,62,0,61,4.70,18.70,3.97,7.15
2014-06-16 19:10:00,0,14773,61,4.02,0,0,0,0,11859,18036,1526,14728,61,61,0,61,2.05,6.85,1.55,3.83
2014-06-16 19:20:00,0,12211,61,7.07,0,0,0,0,10157,13928,1039,12434,61,61,0,61,6.10,8.65,0.86,6.88
2014-06-16 19:30:00,0,12596,61,5.92,0,0,0,0,11308,14307,764,12539,61,61,0,61,1.65,9.75,2.22,6.17
2014-06-16 19:40:00,0,18049,58,1.12,0,0,0,0,13506,23156,3121,17726,51,61,4,61,0.00,3.50,1.19,0.57
2014-06-16 19:50:00,0,31232,5,0.00,0,0,0,0,21289,42175,6089,31487,0,51,15,0,0.00,0.00,0.00,0.00
2014-06-16 20:00:00,0,32086,0,0.00,0,0,0,0,25830,45367,6519,29479,0,0,0,0,0.00,0.00,0.00,0.00
2014-06-16 20:10:00,0,33186,0,0.00,0,0,0,0,26422,40586,4138,33068,0,0,0,0,0.00,0.00,0.00,0.00
2014-06-16 20:20:00,0,31887,0,0.00,0,0,0,0,26871,37310,3126,32346,0,0,0,0,0.00,0.00,0.00,0.00
2014-06-16 20:30:00,0,34938,0,0.00,0,0,0,0,32575,38731,2102,34206,0,0,0,0,0.00,0.00,0.00,0.00
2014-06-16 20:40:00,0,35636,0,0.00,0,0,0,0,29680,41573,4019,36692,0,0,0,0,0.00,0.00,0.00,0.00
2014-06-16 20:50:00,0,42547,0,0.00,0,0,0,0,33972,48358,4297,43346,0,0,0,0,0.00,0.00,0.00,0.00
2014-06-16 21:00:00,0,31668,0,0.00,0,0,0,0,27281,36400,3093,30881,0,0,0,0,0.00,0.00,0.00,0.00
2014-06-16 21:10:00,0,36767,0,0.00,0,0,0,0,30814,44161,3459,36752,0,0,0,0,0.00,0.00,0.00,0.00
2014-06-16 21:20:00,0,34948,0,0.00,0,0,0,0,31898,40786,2743,33703,0,0,0,0,0.00,0.00,0.00,0.00
2014-06-16 21:30:00,0,34867,0,0.00,0,0,0,0,28030,41120,3832,34589,0,0,0,0,0.00,0.00,0.00,0.00
2014-06-16 21:40:00,0,32547,0,0.00,0,0,0,0,27609,36816,2684,32600,0,0,0,0,0.00,0.00,0.00,0.00
2014-06-16 21:50:00,0,27937,0,0.00,0,0,0,0,24242,33865,2584,27911,0,0,0,0,0.00,0.00,0.00,0.00
2014-06-16 22:00:00,0,31320,0,0.00,0,0,0,0,26499,38451,3586,31288,0,0,0,0,0.00,0.00,0.00,0.00
2014-06-16 22:10:00,0,35490,0,0.00,0,0,0,0,30767,44594,4225,34586,0,0,0,0,0.00,0.00,0.00,0.00
2014-06-16 22:20:00,0,38093,0,0.00,0,0,0,0,27358,48059,6438,39372,0,0,0,0,0.00,0.00,0.00,0.00
2014-06-16 22:30:00,0,39290,0,0.00,0,0,0,0,29507,44559,4598,40338,0,0,0,0,0.00,0.00,0.00,0.00
2014-06-16 22:40:00,0,46510,0,0.00,0,0,0,0,39782,50000,3350,46876,0,0,0,0,0.00,0.00,0.00,0.00
2014-06-16 22:50:00,0,46721,0,0.00,0,0,0,0,40364,50000,3175,47416,0,0,0,0,0.00,0.00,0.00,0.00
2014-06-16 23:00:00,0,46129,0,0.00,0,0,0,0,42211,49855,2534,45910,0,0,0,0,0.00,0.00,0.00,0.00
2014-06-16 23:10:00,0,48571,0,0.00,0,0,0,0,47240,50000,949,48514,0,0,0,0,0.00,0.00,0.00,0.00
2014-06-16 23:20:00,0,48566,0,0.00,0,0,0,0,42474,50000,2421,49800,0,0,0,0,0.00,0.00,0.00,0.00
2014-06-16 23:30:00,0,47402,0,0.00,0,0,0,0,41903,50000,2760,48098,0,0,0,0,0.00,0.00,0.00,0.00
2014-06-16 23:40:00,0,44089,0,0.00,0,0,0,0,37783,50000,4119,44027,0,0,0,0,0.00,0.00,0.00,0.00
2014-06-16 23:50:00,0,46829,0,0.00,0,0,0,0,44611,50000,1832,46860,0,0,0,0,0.00,0.00,0.00,0.00
